KAZEOSAT 1

Last updated on Mon Sep 21 2026 00:02:45 GMT+0000 (Coordinated Universal Time)

1 39731U 14024A 26263.63544926 .00000043 00000+0 25911-4 0 9990 2 39731 98.3122 333.6643 0001440 88.0879 272.0476 14.42065193652317
UTC large
Height (km)
Speed (km/s)
/
Latitude / Longitude
Inclination (degrees)
Orbital Period (minutes)
Azimuth
Elevation
Range (km)
Doppler Factor

Next 0 passes for location: London (51.5072 / 0.1276)

No passes found over London.
KAZEOSAT 1